Location: Dackenheim
(49.5215°N, 8.1854°E)
Time: 09:18:17
(UTC+00:00)

JY1SAT - Pass Details

Date: 21 March 2026
Orbit: 465 x 476 km, 97.4° (Epoch: 19 April)

Event Time Altitude Azimuth Distance (km) Brightness Sun altitude
Exits shadow 20:35:22 29° 341° (NNW) 919 ? -27.0°
Drops below altitude 10° 20:37:13 10° 345° (NNW) 1,668 ? -27.3°
Sets 20:39:17 0° 346° (NNW) 2,552 ? -27.5°
